sat.trackr.live / text

‹ back to catalog

HISPASAT 36W-1

NORAD 41942 · 2017-006A

PAYLOAD ACTIVE UNKNOWN

§ Identity

Operator
Country
SPN
Launch date
2017-01-28
Launch site
FRGUI
Launch vehicle
Mass (kg)
RCS (m²)
3.16

Purposes: comms

External: N2YO · Heavens-Above · Gunter

§ Orbital elements

Epoch: 2026-09-20T01:21:10.596096Z

Period
1,436.10 min
Inclination
0.0175°
Eccentricity
0.0000989
Mean motion
1.00271391 rev/d
Perigee alt
35,782.5 km
Apogee alt
35,790.9 km
Semi-major
42,164.8 km
B*
0.0000e+0
RAAN
349.5535°
Arg perigee
183.6740°
Mean anomaly
170.0349°
Rev number
3,519

§ Raw data

HISPASAT 36W-11 41942U 17006A   26263.05637264 -.00000249  00000+0  00000+0 0  99902 41942   0.0175 349.5535 0000989 183.6740 170.0349  1.00271391 35190

JSON: /api/v1/satellites/41942 · /tle

For live sub-satellite position, see the globe view (requires WebGL).

§ Visibility from observer

Set your observer location to see the next 7 days of passes ≥ 10°. The values pass through the URL so the page stays shareable.

No JS? Fill the form by hand. The geolocation button needs JavaScript.